Погода в Овалье

Чили     30°35′47″S   71°11′52″W
темп.,
°C
ветер,
м/с
пор.,
м/с
влажн.,
%
обл.,
%
осадки,
мм/ч
давл.,
гПа
погр.,
м
24 июля, сб
сб2423:00+8зсз119450 0.0 101782
02:00+8сз118781 0.0 1017292
05:00+8зсз1185100 0.0 1017235
08:00+9сз1283100 0.0 1019389
11:00+10с347497 0.0 1021676
14:00+11ссз4568100 0.0 1021806
17:00+11ссз12689 0.0 1021551
20:00+8ююв01810 0.0 102010
25 июля, вс
вс2523:00+7ююз11860 0.0 102110
02:00+6в11870 0.0 102011
05:00+6ююв11860 0.0 101810
08:00+6в11860 0.0 101910
11:00+13ю11520 0.0 1019379
14:00+17зюз22340 0.0 10171052
17:00+16юз32350 0.0 1017767
20:00+11зюз11594 0.0 101910
26 июля, пн
пн2623:00+8зюз11720 0.0 102110
02:00+7з11790 0.0 102110
05:00+6ю11820 0.0 102110
08:00+6вюв11820 0.0 102210
11:00+12ююз11520 0.0 1022561
14:00+15юз21400 0.0 10201223
17:00+15юз21400 0.0 10191053
20:00+10ююз11810 0.0 102113
27 июля, вт
вт2723:00+8вюв00870 0.0 102210
02:00+7вюв11890 0.0 102210
05:00+7ю00880 0.0 102210
08:00+7вюв11870 0.0 102310
11:00+14ююз21540 0.0 1023386
14:00+17юз22370 0.0 1020841
17:00+17ююз21380 0.0 1019593
20:00+11юз11680 0.0 102012
28 июля, ср
ср2823:00+8юз11800 0.0 102010
02:00+7юз11860 0.0 102010
05:00+6ю11890 0.0 101910
08:00+6юв00850 0.0 101910
11:00+14ююз10490 0.0 1018306
14:00+18зюз22320 0.0 1017784
17:00+18юз22300 0.0 1016751
20:00+12зюз11600 0.0 101710